Tracking 19795 objects as of 18-Jul-2019
HD Live streaming from Space Station
objects crossing your sky now

THORAD AGENA D DEB

Track THORAD AGENA D DEB now!
10-day predictions


NORAD ID: 42524
Int'l Code: 1970-025SE
Perigee: 992.8 km
Apogee: 1,043.5 km
Inclination: 99.8 °
Period: 105.4 minutes
Semi major axis: 7389 km
RCS: Unknown
Launch date: April 8, 1970
Source: United States (US)
Launch site: AIR FORCE WESTERN TEST RANGE (AFWTR)

Note: This is SATELLITE DEBRIS
aabbcc
Your satellite tracking list
Your tracking list is empty




NASA's NSSDC Master Catalog

Two Line Element Set (TLE):
1 42524U 70025SE  17298.08788286 +.00000444 +00000-0 +58586-3 0  9992
2 42524 099.7781 248.4124 0034283 320.9201 098.4503 13.66825346656923
Source of the keplerian elements: AFSPC